User: anonymous   Login
Location: Astronight Observatory
(42.6003°N, 71.2981°W)
Time: 02:50:44
(UTC-04:00)
Language:

DELTA 2 R/B (1) - Orbit

View from above orbital plane
View from above orbital plane
View from above satellite
View from above satellite

Ground track
Ground track

The orbit data is extracted from the following two-line orbital elements,

1 27665U 03005C   15240.20952770  .00000001  00000-0  34205-4 0  9997
2 27665 039.5750 225.4599 0008931 303.1638 126.2030 14.28356254656683
Epoch (UTC): 28 August 2015 05:01:43
Eccentricity: 0.0008931
inclination: 39.5750°
perigee height: 791 km
apogee height: 803 km
right ascension of ascending node: 225.4599°
argument of perigee: 303.1638°
revolutions per day: 14.28356254
mean anomaly at epoch: 126.2030°
orbit number at epoch: 65668

The dashed part of the orbit path shows where the satellite is in the earth's shadow,  

DLR